[Iaude] MPEC L18: 2015 VX184 [a=69.33,e=0.34,i=33.6,H=6.2]

mpec at marsden.cfa.harvard.edu mpec at marsden.cfa.harvard.edu
Wed Jun 3 19:58:00 EDT 2020


M.P.E.C. 2020-L18                                  Issued 2020 June 3, 23:55 UT

     The Minor Planet Electronic Circulars contain information on unusual
         minor planets and routine data on comets.  They are published
    on behalf of Division F of the International Astronomical Union by the
          Minor Planet Center, Smithsonian Astrophysical Observatory,
                          Cambridge, MA 02138, U.S.A.

             Prepared using the Tamkin Foundation Computer Network

                              MPC at CFA.HARVARD.EDU
            URL https://www.minorplanetcenter.net/    ISSN 1523-6714

                                   2015 VX184                                   


Observations:
     K15VI4X*5C2015 11 07.22621 01 26 40.510+20 49 18.94         23.5 rVEL018568
     K15VI4X 5C2015 11 07.43495 01 26 39.750+20 49 14.93         23.5 rVEL018568
     K15VI4X 5C2015 12 09.15348 01 25 05.621+20 39 12.12               VEL018304
     K15VI4X 5C2016 09 27.30652 01 31 30.632+21 43 52.34               VEL018304
     K15VI4X 5C2016 09 27.32771 01 31 30.549+21 43 52.02               VEL018304
     K15VI4X 5C2016 09 28.23851 01 31 27.219+21 43 42.98               VEL018304
     K15VI4X 5C2016 10 01.25708 01 31 15.964+21 43 10.54               VEL018304
     K15VI4X 5C2016 10 01.31581 01 31 15.752+21 43 09.81               VEL018304
     K15VI4X 5C2016 11 02.12861 01 29 12.607+21 34 48.34               VEL018304
     K15VI4X 5C2016 11 03.11572 01 29 08.908+21 34 29.50               VEL018304
     K15VI4X  C2016 12 02.20776 01 27 34.718+21 24 59.87               VEL018G37
     K15VI4X  C2016 12 02.29052 01 27 34.458+21 24 58.17               VEL018G37
     K15VI4X  C2017 09 21.22221 01 34 13.454+22 28 57.05         23.6 rVEL018G37
     K15VI4X  C2017 09 21.22945 01 34 13.430+22 28 56.94         23.5 rVEL018G37
     K15VI4X  C2017 09 21.26870 01 34 13.297+22 28 56.92         23.6 rVEL018G37
     K15VI4X  C2017 09 21.27599 01 34 13.271+22 28 56.82         23.5 rVEL018G37
     K15VI4X  C2017 09 22.21906 01 34 09.962+22 28 50.12         23.7 rVEL018G37
     K15VI4X  C2018 02 06.10954 01 29 26.902+21 58 14.05               VEL018G37
     K15VI4X  C2018 02 06.15773 01 29 27.013+21 58 14.33               VEL018G37
     K15VI4X  C2018 02 06.16537 01 29 27.032+21 58 14.28               VEL018G37

Observer details:
304 Las Campanas Observatory.  Observer S. S. Sheppard.  6.5-m Magellan-Baade
    telescope + CCD.
568 Mauna Kea.  Observers S. S. Sheppard, D. J. Tholen, C. Trujillo.  8.2-m
    reflector + CCD.
G37 Lowell Discovery Telescope.  Observers C. Trujillo, W. J. Oldroyd.

Orbital elements:
2015 VX184
Epoch 2020 May 31.0 TT = JDT 2459000.5                  Pike
M 322.56325              (2000.0)            P               Q
n   0.00170750     Peri.   94.17307     -0.23743871     -0.96509316
a  69.3259856      Node    11.53212     +0.51437042     -0.22143805
e   0.3371282      Incl.   33.56655     +0.82404243     -0.13985844
P 577              H    6.2           G   0.15           U   3
Residuals in seconds of arc
151107 568  0.2+  0.3-    161001 304  0.2-  0.3+    170921 G37  0.2+  0.0
151107 568  0.3+  0.2-    161102 304  0.3-  0.2+    170921 G37  0.2+  0.0
151209 304  0.1+  0.4-    161103 304  0.3-  0.2+    170922 G37  0.0   0.1+
160927 304  0.0   0.1+    161202 G37  0.5+  0.2+    180206 G37  0.1-  0.2-
160927 304  0.1-  0.0     161202 G37  0.1-  0.0     180206 G37  0.1+  0.0
160928 304  0.0   0.2+    170921 G37  0.1+  0.1-    180206 G37  0.1+  0.1-
161001 304  0.4-  0.4+    170921 G37  0.1+  0.2-

Ephemeris:
2015 VX184               a,e,i = 69.33, 0.34, 34                 q = 45.9542
Date    TT    R. A. (2000) Decl.     Delta      r    Elong.  Phase     V
2020 05 04    01 39 45.6 +23 54 17  56.1858 55.2237    17.3     0.3    23.7
...
2020 05 19    01 40 50.1 +24 02 32  56.0978 55.2132    28.8     0.5    23.8
...
2020 05 27    01 41 21.4 +24 06 59  56.0276 55.2077    35.7     0.6    23.8
...
2020 06 02    01 41 43.1 +24 10 19  55.9653 55.2035    41.0     0.7    23.8
2020 06 03    01 41 46.6 +24 10 52  55.9541 55.2028    41.9     0.7    23.8
2020 06 04    01 41 50.0 +24 11 25  55.9428 55.2021    42.7     0.7    23.8
...
2020 06 10    01 42 09.3 +24 14 41  55.8704 55.1979    48.1     0.8    23.8
...
2020 06 18    01 42 32.0 +24 18 55  55.7636 55.1923    55.4     0.9    23.8
...
2020 07 03    01 43 03.9 +24 26 19  55.5371 55.1819    69.1     1.0    23.8

M. P. C. Staff               (C) Copyright 2020 MPC           M.P.E.C. 2020-L18




More information about the Iaude mailing list